Time,TemperatureF,DewpointF,PressureIn,WindDirection,WindDirectionDegrees,WindSpeedMPH,WindSpeedGustMPH,Humidity,HourlyPrecipIn,Conditions,Clouds,dailyrainin,SoftwareType,DateUTC
2013-10-17 00:06:00,61.7,57.0,30.01,West,276,0.0,4.0,83,0.00,,,0.00,weatherlink.com 1.10,2013-10-17 05:06:00,
2013-10-17 00:21:00,61.6,56.0,30.00,WNW,293,0.0,7.0,83,0.00,,,0.00,weatherlink.com 1.10,2013-10-17 05:21:00,
2013-10-17 00:36:00,61.5,56.0,30.00,West,272,0.0,7.0,83,0.00,,,0.00,weatherlink.com 1.10,2013-10-17 05:36:00,
2013-10-17 00:51:00,61.5,56.0,30.01,West,269,1.0,3.0,83,0.00,,,0.00,weatherlink.com 1.10,2013-10-17 05:51:00,
2013-10-17 01:06:00,61.5,56.0,30.00,ENE,74,0.0,2.0,83,0.00,,,0.00,weatherlink.com 1.10,2013-10-17 06:06:00,
2013-10-17 01:21:00,61.4,56.0,30.01,WNW,301,0.0,3.0,83,0.00,,,0.00,weatherlink.com 1.10,2013-10-17 06:21:00,
2013-10-17 01:36:00,61.0,56.0,30.01,WNW,290,0.0,5.0,83,0.00,,,0.00,weatherlink.com 1.10,2013-10-17 06:36:00,
2013-10-17 01:51:00,60.7,56.0,30.01,WNW,290,0.0,6.0,83,0.00,,,0.00,weatherlink.com 1.10,2013-10-17 06:51:00,
2013-10-17 02:06:00,60.7,56.0,30.01,NW,326,0.0,3.0,83,0.00,,,0.00,weatherlink.com 1.10,2013-10-17 07:06:00,
2013-10-17 02:21:00,60.8,56.0,30.01,NW,325,0.0,2.0,83,0.00,,,0.00,weatherlink.com 1.10,2013-10-17 07:21:00,
2013-10-17 02:36:00,60.8,56.0,30.01,WNW,303,0.0,2.0,83,0.00,,,0.00,weatherlink.com 1.10,2013-10-17 07:36:00,
2013-10-17 02:51:00,60.8,56.0,30.00,WNW,286,1.0,2.0,83,0.00,,,0.00,weatherlink.com 1.10,2013-10-17 07:51:00,
2013-10-17 03:07:00,60.7,56.0,30.00,WNW,288,0.0,4.0,83,0.00,,,0.00,weatherlink.com 1.10,2013-10-17 08:07:00,
2013-10-17 03:21:00,60.4,55.0,30.00,WNW,297,2.0,6.0,83,0.00,,,0.00,weatherlink.com 1.10,2013-10-17 08:21:00,
2013-10-17 03:37:00,60.3,55.0,30.00,West,263,4.0,8.0,83,0.00,,,0.00,weatherlink.com 1.10,2013-10-17 08:37:00,
2013-10-17 03:52:00,60.1,55.0,30.01,WNW,283,0.0,10.0,84,0.00,,,0.00,weatherlink.com 1.10,2013-10-17 08:52:00,
2013-10-17 04:07:00,60.1,55.0,30.01,West,280,0.0,5.0,84,0.00,,,0.00,weatherlink.com 1.10,2013-10-17 09:07:00,
2013-10-17 04:22:00,60.0,55.0,30.01,North,350,0.0,3.0,84,0.00,,,0.00,weatherlink.com 1.10,2013-10-17 09:22:00,
2013-10-17 04:37:00,59.9,55.0,30.02,NNE,12,0.0,5.0,84,0.00,,,0.00,weatherlink.com 1.10,2013-10-17 09:37:00,
2013-10-17 04:52:00,59.7,55.0,30.02,WNW,290,0.0,2.0,84,0.00,,,0.00,weatherlink.com 1.10,2013-10-17 09:52:00,
2013-10-17 05:07:00,59.6,55.0,30.02,WNW,290,0.0,4.0,84,0.00,,,0.00,weatherlink.com 1.10,2013-10-17 10:07:00,
2013-10-17 05:22:00,59.4,55.0,30.01,WNW,287,0.0,5.0,84,0.00,,,0.00,weatherlink.com 1.10,2013-10-17 10:22:00,
2013-10-17 05:37:00,59.4,55.0,30.01,West,278,2.0,2.0,85,0.00,,,0.00,weatherlink.com 1.10,2013-10-17 10:37:00,
2013-10-17 05:52:00,59.4,55.0,30.02,WNW,292,0.0,4.0,85,0.00,,,0.00,weatherlink.com 1.10,2013-10-17 10:52:00,
2013-10-17 06:07:00,59.5,55.0,30.02,WNW,288,0.0,3.0,85,0.00,,,0.00,weatherlink.com 1.10,2013-10-17 11:07:00,
2013-10-17 06:22:00,59.4,55.0,30.02,WNW,286,0.0,4.0,85,0.00,,,0.00,weatherlink.com 1.10,2013-10-17 11:22:00,
2013-10-17 06:37:00,59.3,55.0,30.03,WNW,294,2.0,5.0,86,0.00,,,0.00,weatherlink.com 1.10,2013-10-17 11:37:00,
2013-10-17 06:52:00,59.0,55.0,30.03,West,280,9.0,10.0,86,0.00,,,0.00,weatherlink.com 1.10,2013-10-17 11:52:00,
2013-10-17 07:07:00,59.0,55.0,30.04,WNW,301,2.0,8.0,87,0.00,,,0.00,weatherlink.com 1.10,2013-10-17 12:07:00,
2013-10-17 07:22:00,58.6,55.0,30.05,WNW,290,0.0,6.0,87,0.00,,,0.00,weatherlink.com 1.10,2013-10-17 12:22:00,
2013-10-17 07:37:00,58.2,54.0,30.05,NW,315,4.0,8.0,87,0.00,,,0.00,weatherlink.com 1.10,2013-10-17 12:37:00,
2013-10-17 07:52:00,57.9,54.0,30.06,WNW,282,1.0,6.0,87,0.00,,,0.00,weatherlink.com 1.10,2013-10-17 12:52:00,
2013-10-17 08:07:00,57.9,54.0,30.06,WNW,283,0.0,4.0,87,0.00,,,0.00,weatherlink.com 1.10,2013-10-17 13:07:00,
2013-10-17 08:22:00,58.0,54.0,30.07,WNW,285,2.0,3.0,87,0.00,,,0.00,weatherlink.com 1.10,2013-10-17 13:22:00,
2013-10-17 08:37:00,57.6,54.0,30.07,West,281,0.0,5.0,88,0.00,,,0.00,weatherlink.com 1.10,2013-10-17 13:37:00,
2013-10-17 08:52:00,57.8,54.0,30.07,North,350,1.0,5.0,88,0.00,,,0.00,weatherlink.com 1.10,2013-10-17 13:52:00,
2013-10-17 09:07:00,58.5,55.0,30.08,NNE,16,0.0,4.0,88,0.00,,,0.00,weatherlink.com 1.10,2013-10-17 14:07:00,
2013-10-17 09:22:00,59.6,56.0,30.09,West,276,0.0,4.0,87,0.00,,,0.00,weatherlink.com 1.10,2013-10-17 14:22:00,
2013-10-17 09:37:00,60.6,56.0,30.09,West,271,0.0,6.0,85,0.00,,,0.00,weatherlink.com 1.10,2013-10-17 14:37:00,
2013-10-17 09:52:00,61.2,56.0,30.09,WNW,301,2.0,5.0,84,0.00,,,0.00,weatherlink.com 1.10,2013-10-17 14:52:00,
2013-10-17 10:07:00,62.2,56.0,30.09,West,265,3.0,10.0,81,0.00,,,0.00,weatherlink.com 1.10,2013-10-17 15:07:00,
2013-10-17 10:22:00,62.9,55.0,30.09,NW,312,2.0,11.0,75,0.00,,,0.00,weatherlink.com 1.10,2013-10-17 15:22:00,
2013-10-17 10:37:00,63.9,54.0,30.09,NE,56,2.0,10.0,70,0.00,,,0.00,weatherlink.com 1.10,2013-10-17 15:37:00,
2013-10-17 10:52:00,63.9,53.0,30.09,WNW,300,2.0,10.0,68,0.00,,,0.00,weatherlink.com 1.10,2013-10-17 15:52:00,
2013-10-17 11:07:00,65.5,55.0,30.09,NE,38,0.0,8.0,68,0.00,,,0.00,weatherlink.com 1.10,2013-10-17 16:07:00,
2013-10-17 11:22:00,65.8,54.0,30.09,North,4,0.0,9.0,65,0.00,,,0.00,weatherlink.com 1.10,2013-10-17 16:22:00,
2013-10-17 11:37:00,66.3,55.0,30.09,North,355,2.0,10.0,66,0.00,,,0.00,weatherlink.com 1.10,2013-10-17 16:37:00,
2013-10-17 11:53:00,67.2,54.0,30.08,NNW,328,3.0,9.0,63,0.00,,,0.00,weatherlink.com 1.10,2013-10-17 16:53:00,
2013-10-17 12:08:00,66.8,54.0,30.08,WNW,283,7.0,11.0,63,0.00,,,0.00,weatherlink.com 1.10,2013-10-17 17:08:00,
2013-10-17 12:23:00,67.5,53.0,30.07,NNW,330,2.0,9.0,60,0.00,,,0.00,weatherlink.com 1.10,2013-10-17 17:23:00,
2013-10-17 12:38:00,67.8,52.0,30.07,North,350,0.0,9.0,57,0.00,,,0.00,weatherlink.com 1.10,2013-10-17 17:38:00,
2013-10-17 12:53:00,68.2,54.0,30.06,WNW,299,7.0,8.0,61,0.00,,,0.00,weatherlink.com 1.10,2013-10-17 17:53:00,
2013-10-17 13:08:00,68.8,53.0,30.05,NW,317,0.0,10.0,58,0.00,,,0.00,weatherlink.com 1.10,2013-10-17 18:08:00,
2013-10-17 13:23:00,68.6,53.0,30.05,NE,55,0.0,8.0,57,0.00,,,0.00,weatherlink.com 1.10,2013-10-17 18:23:00,
2013-10-17 13:38:00,69.9,53.0,30.04,NW,325,1.0,5.0,55,0.00,,,0.00,weatherlink.com 1.10,2013-10-17 18:38:00,
2013-10-17 13:53:00,69.9,52.0,30.03,West,260,0.0,14.0,54,0.00,,,0.00,weatherlink.com 1.10,2013-10-17 18:53:00,
2013-10-17 14:08:00,71.2,54.0,30.03,West,279,0.0,5.0,54,0.00,,,0.00,weatherlink.com 1.10,2013-10-17 19:08:00,
2013-10-17 14:23:00,71.5,53.0,30.02,WNW,298,2.0,12.0,53,0.00,,,0.00,weatherlink.com 1.10,2013-10-17 19:23:00,
2013-10-17 14:38:00,72.5,53.0,30.01,NNW,334,0.0,9.0,50,0.00,,,0.00,weatherlink.com 1.10,2013-10-17 19:38:00,
2013-10-17 14:53:00,72.5,53.0,30.00,West,260,0.0,6.0,50,0.00,,,0.00,weatherlink.com 1.10,2013-10-17 19:53:00,
2013-10-17 15:08:00,73.9,52.0,30.00,SW,236,1.0,3.0,46,0.00,,,0.00,weatherlink.com 1.10,2013-10-17 20:08:00,
2013-10-17 15:23:00,72.6,49.0,30.00,NNW,337,4.0,11.0,43,0.00,,,0.00,weatherlink.com 1.10,2013-10-17 20:23:00,
2013-10-17 15:38:00,73.0,51.0,30.00,WNW,303,0.0,10.0,47,0.00,,,0.00,weatherlink.com 1.10,2013-10-17 20:38:00,
2013-10-17 15:53:00,73.6,51.0,30.00,NW,326,0.0,8.0,46,0.00,,,0.00,weatherlink.com 1.10,2013-10-17 20:53:00,
2013-10-17 16:08:00,73.2,49.0,30.00,NNW,338,0.0,6.0,43,0.00,,,0.00,weatherlink.com 1.10,2013-10-17 21:08:00,
2013-10-17 16:23:00,73.0,52.0,30.00,West,270,0.0,7.0,48,0.00,,,0.00,weatherlink.com 1.10,2013-10-17 21:23:00,
2013-10-17 16:38:00,74.3,52.0,30.00,SSW,211,0.0,4.0,45,0.00,,,0.00,weatherlink.com 1.10,2013-10-17 21:38:00,
2013-10-17 16:53:00,72.4,50.0,29.99,West,278,1.0,7.0,45,0.00,,,0.00,weatherlink.com 1.10,2013-10-17 21:53:00,
2013-10-17 17:08:00,70.8,51.0,29.99,WNW,290,0.0,4.0,50,0.00,,,0.00,weatherlink.com 1.10,2013-10-17 22:08:00,
2013-10-17 17:23:00,70.0,50.0,29.99,WNW,297,0.0,2.0,50,0.00,,,0.00,weatherlink.com 1.10,2013-10-17 22:23:00,
2013-10-17 17:38:00,69.4,52.0,29.99,West,267,0.0,1.0,55,0.00,,,0.00,weatherlink.com 1.10,2013-10-17 22:38:00,
2013-10-17 17:53:00,68.5,54.0,30.00,West,267,0.0,1.0,61,0.00,,,0.00,weatherlink.com 1.10,2013-10-17 22:53:00,
2013-10-17 18:08:00,67.5,57.0,30.00,West,267,0.0,0.0,68,0.00,,,0.00,weatherlink.com 1.10,2013-10-17 23:08:00,
2013-10-17 18:23:00,65.7,55.0,30.00,West,267,0.0,0.0,68,0.00,,,0.00,weatherlink.com 1.10,2013-10-17 23:23:00,
2013-10-17 18:38:00,64.6,56.0,30.00,West,267,0.0,0.0,74,0.00,,,0.00,weatherlink.com 1.10,2013-10-17 23:38:00,
2013-10-17 18:53:00,62.6,56.0,30.00,West,267,0.0,0.0,79,0.00,,,0.00,weatherlink.com 1.10,2013-10-17 23:53:00,
2013-10-17 19:08:00,61.1,56.0,30.00,West,267,0.0,0.0,82,0.00,,,0.00,weatherlink.com 1.10,2013-10-18 00:08:00,
2013-10-17 19:23:00,60.0,55.0,30.00,West,267,0.0,0.0,84,0.00,,,0.00,weatherlink.com 1.10,2013-10-18 00:23:00,
2013-10-17 19:38:00,59.0,55.0,30.00,West,267,0.0,0.0,85,0.00,,,0.00,weatherlink.com 1.10,2013-10-18 00:38:00,
2013-10-17 19:53:00,58.3,55.0,30.00,West,267,0.0,0.0,87,0.00,,,0.00,weatherlink.com 1.10,2013-10-18 00:53:00,
2013-10-17 20:08:00,57.7,54.0,30.01,West,267,0.0,0.0,87,0.00,,,0.00,weatherlink.com 1.10,2013-10-18 01:08:00,
2013-10-17 20:23:00,57.1,54.0,30.00,West,267,0.0,0.0,88,0.00,,,0.00,weatherlink.com 1.10,2013-10-18 01:23:00,
2013-10-17 20:38:00,56.6,53.0,30.01,West,267,0.0,0.0,88,0.00,,,0.00,weatherlink.com 1.10,2013-10-18 01:38:00,
2013-10-17 20:53:00,56.0,53.0,30.01,West,267,0.0,0.0,88,0.00,,,0.00,weatherlink.com 1.10,2013-10-18 01:53:00,
2013-10-17 21:08:00,55.6,53.0,30.02,West,267,0.0,0.0,89,0.00,,,0.00,weatherlink.com 1.10,2013-10-18 02:08:00,
2013-10-17 21:23:00,55.1,52.0,30.02,West,267,0.0,0.0,88,0.00,,,0.00,weatherlink.com 1.10,2013-10-18 02:23:00,
2013-10-17 21:38:00,54.7,51.0,30.02,West,267,0.0,0.0,88,0.00,,,0.00,weatherlink.com 1.10,2013-10-18 02:38:00,
2013-10-17 21:53:00,54.3,51.0,30.03,West,267,0.0,0.0,88,0.00,,,0.00,weatherlink.com 1.10,2013-10-18 02:53:00,
2013-10-17 22:08:00,53.9,51.0,30.03,West,267,0.0,0.0,88,0.00,,,0.00,weatherlink.com 1.10,2013-10-18 03:08:00,
2013-10-17 22:24:00,53.5,50.0,30.03,West,267,0.0,0.0,88,0.00,,,0.00,weatherlink.com 1.10,2013-10-18 03:24:00,
2013-10-17 22:39:00,53.2,50.0,30.02,West,267,0.0,0.0,88,0.00,,,0.00,weatherlink.com 1.10,2013-10-18 03:39:00,
2013-10-17 22:54:00,52.8,49.0,30.02,West,267,0.0,0.0,88,0.00,,,0.00,weatherlink.com 1.10,2013-10-18 03:54:00,
2013-10-17 23:09:00,52.4,49.0,30.02,West,267,0.0,0.0,88,0.00,,,0.00,weatherlink.com 1.10,2013-10-18 04:09:00,
2013-10-17 23:24:00,52.1,49.0,30.02,West,267,0.0,0.0,88,0.00,,,0.00,weatherlink.com 1.10,2013-10-18 04:24:00,
2013-10-17 23:39:00,51.8,48.0,30.02,West,267,0.0,0.0,88,0.00,,,0.00,weatherlink.com 1.10,2013-10-18 04:39:00,
2013-10-17 23:54:00,51.7,48.0,30.02,West,267,0.0,0.0,87,0.00,,,0.00,weatherlink.com 1.10,2013-10-18 04:54:00,